Overview Statistics Trail Chart Weather Telemetry Raw packets
 

This is the latest recevied weather packets stored in our database for station/object K1RFS. If no packets are shown the sender has not sent any weather packets the latest 10 day(s).

<< 31 32 33 34 35 36 37 >>
Time Temp. Humidity Pressure Rain* Wind** Luminosity Snow
1788479643 30° C 15% 996.2 hPa 0 mm - 112 W/m² -
1788479341 30° C 14% 996.4 hPa 0 mm - 221 W/m² -
1788479038 29.44° C 15% 996.2 hPa 0 mm - 248 W/m² -
1788478734 29.44° C 14% 996.5 hPa 0 mm - 264 W/m² -
1788478430 30° C 14% 996.7 hPa 0 mm - 88 W/m² -
1788478129 30° C 14% 996.7 hPa 0 mm - 299 W/m² -
1788477824 30.56° C 14% 996.5 hPa 0 mm - 282 W/m² -
1788477524 30.56° C 14% 996.6 hPa 0 mm - 338 W/m² -
1788477219 30° C 14% 996.8 hPa 0 mm - 292 W/m² -
1788476915 30.56° C 14% 996.9 hPa 0 mm - 169 W/m² -
1788476610 30° C 14% 997 hPa 0 mm - 361 W/m² -
1788476306 30° C 13% 997.2 hPa 0 mm - 218 W/m² -
1788476002 30° C 13% 997.2 hPa 0 mm - 361 W/m² -
1788475698 30° C 13% 997.2 hPa 0 mm - 281 W/m² -
1788475394 30.56° C 13% 997.5 hPa 0 mm - 372 W/m² -
1788475089 30° C 13% 997.4 hPa 0 mm - 379 W/m² -
1788474788 30.56° C 13% 997.3 hPa 0 mm - 387 W/m² -
1788474483 30° C 13% 997.6 hPa 0 mm - 399 W/m² -
1788474182 30° C 12% 997.5 hPa 0 mm - 410 W/m² -
1788473877 30° C 12% 998 hPa 0 mm - 420 W/m² -
1788473575 30° C 12% 997.8 hPa 0 mm - 429 W/m² -
1788473274 30.56° C 13% 998 hPa 0 mm - 439 W/m² -
1788472969 30.56° C 12% 998.1 hPa 0 mm - 450 W/m² -
1788472667 30.56° C 13% 998.1 hPa 0 mm - 458 W/m² -
1788472364 30.56° C 13% 997.8 hPa 0 mm - 469 W/m² -

* Rain latest hour (hover to see other rain measurements)
** Current wind speed in m/s (hover to see current wind gust speed)